Pellston, MI

1:23 PM EST on November 20, 2017 (GMT -0500)
Pellston Regional Airport Of Emmet County

Weather History for KPLN - March, 2014

Change the Weather History Date:

Sunday, March 2, 2014

  Actual Average Record
Temperature  
Mean Temperature -8 °F -  
Max Temperature 3 °F 31 °F 49 °F (1964)
Min Temperature -20 °F 11 °F -34 °F (1962)
Degree Days  
Heating Degree Days 74    
Moisture  
Dew Point -16 °F    
Average Humidity 70    
Maximum Humidity 87    
Minimum Humidity 50    
Precipitation  
Precipitation 0.00 in - - ()
Sea Level Pressure  
Sea Level Pressure 30.40 in    
Wind  
Wind Speed 3 mph (West)    
Max Wind Speed 16 mph    
Max Gust Speed 21 mph    
Visibility 10 miles    
Events      
Averages and records for this station are not official NWS values.
T = Trace of Precipitation, MM = Missing Value Source: NWS Daily Summary

Daily Weather History Graph

Daily Weather History Graph

Search for Another Location

Airport or City:

Trip Planner

Search our weather history database for the weather conditions in past years. The results will help you decide how hot, cold, wet, or windy it might be!

Date:

Astronomy

Mar. 02, 2014 Rise Set
Actual Time 7:15 AM EST 6:27 PM EST
Civil Twilight 6:46 AM EST 6:57 PM EST
Nautical Twilight 6:11 AM EST 7:31 PM EST
Astronomical Twilight 5:37 AM EST 8:06 PM EST
Moon 7:40 AM EST (3/2) 8:30 PM EST (3/2)
Length of Visible Light 12h 11m
Length of Day
11h 11m
Waxing Crescent, 3% of the Moon is Illuminated
Mar 2
Waxing Crescent
Mar 8
First Quarter
Mar 16
Full
Mar 23
Last Quarter
Mar 30
New

Hourly Weather History & Observations

Time (EST) Temp. Windchill Dew Point Humidity Pressure Visibility Wind Dir Wind Speed Gust Speed Precip Events Conditions
12:54 AM -13.0 °F - -17.0 °F 82% 30.40 in 10.0 mi Calm Calm - N/A   Clear
1:54 AM -14.1 °F - -18.9 °F 79% 30.41 in 10.0 mi Calm Calm - N/A   Clear
2:24 AM -15.0 °F - -20.0 °F 78% 30.34 in 10.0 mi Calm Calm - N/A   Mostly Cloudy
2:54 AM -14.1 °F - -20.0 °F 75% 30.41 in 10.0 mi Calm Calm - N/A   Mostly Cloudy
3:14 AM -13.0 °F - -18.9 °F 75% 30.34 in 10.0 mi Calm Calm - N/A   Scattered Clouds
3:54 AM -14.1 °F - -20.0 °F 75% 30.42 in 10.0 mi Calm Calm - N/A   Clear
4:54 AM -15.0 °F - -20.0 °F 78% 30.43 in 10.0 mi Calm Calm - N/A   Clear
5:20 AM -16.1 °F - -20.9 °F 79% 30.36 in 10.0 mi Calm Calm - N/A   Mostly Cloudy
5:30 AM -15.0 °F - -20.9 °F 75% 30.37 in 10.0 mi Calm Calm - N/A   Mostly Cloudy
5:54 AM -17.0 °F - -23.1 °F 74% 30.43 in 10.0 mi Calm Calm - N/A   Overcast
6:54 AM -18.0 °F - -23.1 °F 78% 30.43 in 10.0 mi Calm Calm - N/A   Clear
7:54 AM -5.1 °F -21.5 °F -11.0 °F 76% 30.42 in 10.0 mi WNW 9.2 mph - N/A   Clear
8:54 AM -4.0 °F -20.2 °F -9.9 °F 76% 30.43 in 10.0 mi WNW 9.2 mph - N/A   Clear
9:54 AM -2.0 °F -17.7 °F -9.0 °F 72% 30.42 in 10.0 mi WNW 9.2 mph - N/A   Clear
10:54 AM -0.9 °F -18.3 °F -11.0 °F 62% 30.42 in 10.0 mi NW 11.5 mph - N/A   Partly Cloudy
11:54 AM -0.0 °F -16.3 °F -9.9 °F 63% 30.42 in 10.0 mi West 10.4 mph - N/A   Clear
12:54 PM 3.0 °F -15.5 °F -9.9 °F 55% 30.40 in 10.0 mi WNW 15.0 mph - N/A   Clear
1:54 PM 3.0 °F -16.1 °F -9.9 °F 55% 30.38 in 10.0 mi West 16.1 mph 20.7 mph N/A   Clear
2:54 PM 3.0 °F -14.8 °F -9.9 °F 55% 30.37 in 10.0 mi West 13.8 mph 19.6 mph N/A   Clear
3:54 PM 3.0 °F -11.5 °F -11.9 °F 50% 30.37 in 10.0 mi West 9.2 mph - N/A   Clear
4:54 PM 1.9 °F -13.8 °F -11.9 °F 52% 30.35 in 10.0 mi West 10.4 mph - N/A   Clear
5:54 PM 1.9 °F -10.6 °F -11.0 °F 55% 30.36 in 10.0 mi WSW 6.9 mph - N/A   Clear
6:54 PM -0.9 °F -11.0 °F -11.0 °F 62% 30.38 in 9.0 mi West 4.6 mph - N/A   Clear
7:54 PM -2.9 °F - -11.9 °F 65% 30.38 in 10.0 mi Calm Calm - N/A   Clear
8:54 PM -7.1 °F -15.9 °F -13.0 °F 75% 30.40 in 10.0 mi West 3.5 mph - N/A   Clear
9:54 PM -18.0 °F - -20.9 °F 87% 30.43 in 10.0 mi Calm Calm - N/A   Clear
10:54 PM -20.0 °F - -24.0 °F 82% 30.44 in 10.0 mi Calm Calm - N/A   Clear
11:54 PM -20.0 °F - -24.0 °F 82% 30.46 in 10.0 mi Calm Calm - N/A   Clear